TimeCDT,TemperatureF,Dew PointF,Humidity,Sea Level PressureIn,VisibilityMPH,Wind Direction,Wind SpeedMPH,Gust SpeedMPH,PrecipitationIn,Events,Conditions,WindDirDegrees,DateUTC
12:15 AM,71.6,60.8,69,29.85,10.0,South,12.7,-,N/A,,Clear,170,2013-05-09 05:15:00
1:15 AM,70.3,60.8,72,29.84,10.0,South,12.7,-,N/A,,Clear,170,2013-05-09 06:15:00
2:15 AM,66.7,60.3,80,29.85,10.0,SE,5.8,-,N/A,,Clear,140,2013-05-09 07:15:00
3:55 AM,62.4,58.1,86,29.85,7.0,Calm,Calm,-,N/A,,Clear,0,2013-05-09 08:55:00
4:55 AM,62.4,59.0,89,29.85,7.0,East,9.2,-,N/A,,Clear,90,2013-05-09 09:55:00
5:15 AM,61.3,58.1,89,29.85,5.0,East,8.1,-,N/A,,Clear,80,2013-05-09 10:15:00
5:35 AM,60.8,57.9,90,29.85,5.0,East,8.1,-,N/A,,Clear,90,2013-05-09 10:35:00
6:35 AM,59.9,57.6,92,29.86,4.0,ESE,8.1,-,N/A,,Clear,110,2013-05-09 11:35:00
6:55 AM,59.9,57.7,93,29.87,4.0,East,6.9,-,N/A,,Clear,90,2013-05-09 11:55:00
8:55 AM,65.3,60.4,84,29.91,10.0,East,6.9,-,N/A,,Mostly Cloudy,100,2013-05-09 13:55:00
9:15 AM,66.4,60.8,82,29.91,10.0,East,5.8,-,N/A,,Mostly Cloudy,100,2013-05-09 14:15:00
9:35 AM,67.8,60.8,78,29.91,10.0,East,4.6,-,N/A,,Mostly Cloudy,90,2013-05-09 14:35:00
9:55 AM,69.1,61.0,75,29.92,10.0,ESE,3.5,-,N/A,,Overcast,120,2013-05-09 14:55:00
10:15 AM,69.4,61.2,75,29.92,10.0,East,3.5,-,N/A,,Overcast,80,2013-05-09 15:15:00
10:35 AM,71.6,61.7,71,29.92,10.0,ENE,4.6,-,N/A,,Overcast,70,2013-05-09 15:35:00
10:55 AM,73.0,61.7,67,29.91,10.0,North,5.8,-,N/A,,Mostly Cloudy,360,2013-05-09 15:55:00
11:15 AM,74.8,61.5,63,29.91,10.0,North,5.8,-,N/A,,Mostly Cloudy,10,2013-05-09 16:15:00
11:35 AM,76.3,59.7,56,29.90,10.0,NNE,9.2,16.1,N/A,,Mostly Cloudy,30,2013-05-09 16:35:00
11:55 AM,76.3,58.5,54,29.91,10.0,NE,10.4,-,N/A,,Mostly Cloudy,40,2013-05-09 16:55:00
12:15 PM,77.0,58.3,52,29.92,10.0,NNE,10.4,16.1,N/A,,Mostly Cloudy,20,2013-05-09 17:15:00
12:35 PM,77.2,58.1,52,29.93,10.0,NE,9.2,16.1,N/A,,Scattered Clouds,40,2013-05-09 17:35:00
12:55 PM,76.1,58.5,54,29.94,10.0,ENE,12.7,16.1,N/A,,Scattered Clouds,70,2013-05-09 17:55:00
1:15 PM,75.2,60.3,60,29.94,10.0,East,10.4,16.1,N/A,,Scattered Clouds,90,2013-05-09 18:15:00
1:35 PM,76.1,60.1,57,29.93,10.0,East,9.2,-,N/A,,Clear,80,2013-05-09 18:35:00
1:55 PM,77.5,60.1,55,29.93,10.0,East,8.1,-,N/A,,Clear,100,2013-05-09 18:55:00
2:35 PM,79.3,58.6,49,29.91,10.0,NNE,6.9,-,N/A,,Clear,20,2013-05-09 19:35:00
2:55 PM,81.0,58.1,46,29.91,10.0,NE,6.9,18.4,N/A,,Clear,50,2013-05-09 19:55:00
3:15 PM,79.5,57.4,47,29.91,10.0,ENE,5.8,-,N/A,,Scattered Clouds,70,2013-05-09 20:15:00
3:35 PM,78.8,59.0,51,29.90,10.0,NE,9.2,-,N/A,,Scattered Clouds,50,2013-05-09 20:35:00
3:55 PM,79.7,57.9,47,29.90,10.0,ENE,5.8,-,N/A,,Clear,60,2013-05-09 20:55:00
4:15 PM,82.0,56.5,41,29.88,10.0,North,9.2,-,N/A,,Clear,350,2013-05-09 21:15:00
4:35 PM,82.6,56.3,40,29.88,10.0,NNE,8.1,-,N/A,,Scattered Clouds,20,2013-05-09 21:35:00
4:55 PM,80.8,56.1,43,29.88,10.0,ENE,12.7,17.3,N/A,,Scattered Clouds,60,2013-05-09 21:55:00
5:15 PM,81.9,54.7,39,29.87,10.0,ENE,12.7,20.7,N/A,,Clear,60,2013-05-09 22:15:00
5:35 PM,83.5,54.1,36,29.86,10.0,NNE,5.8,9.2,N/A,,Clear,30,2013-05-09 22:35:00
5:55 PM,79.7,57.0,46,29.86,10.0,East,8.1,-,N/A,,Clear,90,2013-05-09 22:55:00
6:15 PM,80.4,57.6,45,29.86,10.0,East,11.5,16.1,N/A,,Scattered Clouds,80,2013-05-09 23:15:00
6:35 PM,75.7,55.9,50,29.87,10.0,SE,9.2,-,N/A,Thunderstorm,Mostly Cloudy,140,2013-05-09 23:35:00
6:55 PM,74.5,55.6,52,29.87,10.0,SSE,15.0,-,N/A,Thunderstorm,Overcast,150,2013-05-09 23:55:00
7:35 PM,64.4,59.0,83,29.91,2.0,NNE,13.8,20.7,0.44,Rain-Thunderstorm,Rain,30,2013-05-10 00:35:00
7:55 PM,63.9,57.2,79,29.92,7.0,NNE,17.3,21.9,0.49,Rain-Thunderstorm,Thunderstorms and Rain,20,2013-05-10 00:55:00
8:15 PM,66.9,60.8,81,29.93,3.0,SSW,3.5,-,0.09,Rain-Thunderstorm,Heavy Thunderstorms and Rain,200,2013-05-10 01:15:00
8:35 PM,64.8,59.5,83,29.93,5.0,ENE,5.8,11.5,0.34,Rain-Thunderstorm,Thunderstorms and Rain,60,2013-05-10 01:35:00
8:55 PM,64.6,59.5,84,29.93,10.0,ENE,11.5,-,0.34,Thunderstorm,Scattered Clouds,70,2013-05-10 01:55:00
9:15 PM,62.8,58.3,85,29.94,10.0,East,6.9,-,N/A,,Scattered Clouds,90,2013-05-10 02:15:00
9:35 PM,64.4,59.5,84,29.95,10.0,East,6.9,-,N/A,,Scattered Clouds,90,2013-05-10 02:35:00
9:55 PM,64.2,59.2,84,29.98,10.0,NE,6.9,-,N/A,,Mostly Cloudy,40,2013-05-10 02:55:00
10:15 PM,62.8,58.3,85,29.98,10.0,East,11.5,-,N/A,Rain,Light Rain,90,2013-05-10 03:15:00
10:35 PM,61.7,55.9,81,29.99,10.0,East,5.8,-,N/A,,Scattered Clouds,80,2013-05-10 03:35:00
10:55 PM,61.5,55.4,80,29.98,10.0,NE,4.6,-,N/A,,Scattered Clouds,50,2013-05-10 03:55:00
11:15 PM,62.1,53.8,74,29.97,10.0,NE,6.9,-,N/A,,Scattered Clouds,50,2013-05-10 04:15:00
11:35 PM,61.2,54.1,78,29.97,10.0,NNE,6.9,-,N/A,,Clear,20,2013-05-10 04:35:00
11:55 PM,61.2,55.6,82,29.97,10.0,NE,6.9,-,N/A,,Clear,40,2013-05-10 04:55:00